Location: Dillon
(41.1766°N, 107.0923°W)
Time: 14:31:10
(UTC+00:00)

DIWATA 2B (PO-101) - Pass Details

Date: 02 July 2022
Orbit: 583 x 599 km, 98.0° (Epoch: 19 August)

Event Time Altitude Azimuth Distance (km) Brightness Sun altitude
Exits shadow 08:13:17 18° 105° (ESE) 1,479 ? -24.3°
Maximum altitude 08:15:09 25° 68° (ENE) 1,236 ? -24.2°
Drops below altitude 10° 08:18:35 10° 14° (NNE) 1,948 ? -24.0°
Sets 08:21:03 0° 1° (N) 2,856 ? -23.9°
